TimePDT,TemperatureF,Dew PointF,Humidity,Sea Level PressureIn,VisibilityMPH,Wind Direction,Wind SpeedMPH,Gust SpeedMPH,PrecipitationIn,Events,Conditions,WindDirDegrees,DateUTC
12:53 AM,72.0,61.0,68,29.80,10.0,Calm,Calm,-,N/A,,Clear,0,2013-08-28 07:53:00
1:53 AM,72.0,60.1,66,29.78,10.0,Calm,Calm,-,N/A,,Clear,0,2013-08-28 08:53:00
2:53 AM,72.0,61.0,68,29.78,10.0,Calm,Calm,-,N/A,,Clear,0,2013-08-28 09:53:00
3:53 AM,72.0,61.0,68,29.77,10.0,Calm,Calm,-,N/A,,Clear,0,2013-08-28 10:53:00
4:53 AM,71.1,60.1,68,29.77,10.0,Calm,Calm,-,N/A,,Clear,0,2013-08-28 11:53:00
5:53 AM,71.1,60.1,68,29.79,10.0,Calm,Calm,-,N/A,,Partly Cloudy,0,2013-08-28 12:53:00
6:53 AM,71.1,60.1,68,29.81,9.0,Calm,Calm,-,N/A,,Clear,0,2013-08-28 13:53:00
7:53 AM,75.0,60.1,60,29.83,9.0,South,3.5,-,N/A,,Clear,170,2013-08-28 14:53:00
8:53 AM,79.0,60.1,52,29.84,9.0,Calm,Calm,-,N/A,,Partly Cloudy,0,2013-08-28 15:53:00
9:53 AM,82.9,59.0,44,29.85,10.0,Variable,3.5,-,N/A,,Partly Cloudy,0,2013-08-28 16:53:00
10:53 AM,86.0,60.1,41,29.86,10.0,SW,6.9,-,N/A,,Scattered Clouds,230,2013-08-28 17:53:00
11:53 AM,86.0,57.9,38,29.85,10.0,SW,8.1,-,N/A,,Scattered Clouds,220,2013-08-28 18:53:00
12:53 PM,87.1,55.0,33,29.85,10.0,WSW,8.1,-,N/A,,Scattered Clouds,250,2013-08-28 19:53:00
1:53 PM,88.0,55.9,34,29.84,10.0,SW,10.4,-,N/A,,Scattered Clouds,220,2013-08-28 20:53:00
2:53 PM,87.1,55.9,35,29.82,10.0,SW,9.2,-,N/A,,Scattered Clouds,230,2013-08-28 21:53:00
3:53 PM,87.1,55.9,35,29.81,10.0,SW,9.2,-,N/A,,Scattered Clouds,230,2013-08-28 22:53:00
4:53 PM,87.1,59.0,39,29.80,10.0,SSW,10.4,-,N/A,,Partly Cloudy,210,2013-08-28 23:53:00
5:53 PM,86.0,59.0,40,29.81,10.0,SSW,8.1,-,N/A,,Scattered Clouds,200,2013-08-29 00:53:00
6:53 PM,82.0,57.0,42,29.81,10.0,SW,6.9,-,N/A,,Partly Cloudy,220,2013-08-29 01:53:00
7:53 PM,79.0,55.9,45,29.83,10.0,SW,6.9,-,N/A,,Clear,230,2013-08-29 02:53:00
8:53 PM,77.0,57.9,52,29.86,10.0,SW,3.5,-,N/A,,Clear,220,2013-08-29 03:53:00
9:53 PM,75.9,60.1,58,29.88,10.0,South,4.6,-,N/A,,Clear,180,2013-08-29 04:53:00
10:53 PM,75.9,60.1,58,29.88,10.0,Calm,Calm,-,N/A,,Clear,0,2013-08-29 05:53:00
11:53 PM,73.0,62.1,68,29.88,10.0,SSW,4.6,-,N/A,,Clear,200,2013-08-29 06:53:00